Regional Weather Roundup
Issued by NWS Northern Indiana

Current Version | Previous Version | Text Only | Print | Product List | Glossary On
Versions: 1 2 3 4 5 6 7 8 9 10 11 12 13 14 15 16 17 18 19 20 21 22 23 24 25 26 27 28 29 30 31 32 33 34 35 36 37 38 39 40 41 42 43 44 45 46 47 48 49 50
000 ASUS43 KIWX 041310 RWRIWX KIWX WEATHER ROUNDUP NATIONAL WEATHER SERVICE NORTHERN INDIANA 800 AM EST THU MAR 04 2021 NOTE: "FAIR" INDICATES FEW OR NO CLOUDS BELOW 12,000 FEET WITH NO SIGNIFICANT WEATHER AND/OR OBSTRUCTIONS TO VISIBILITY. * THESE STATIONS ARE NOT UNDER NWS QUALITY CONTROL. THEY ALSO MAY NOT REPORT WEATHER SUCH AS PRECIPITATION OR FOG. INZ001>027-041400- NORTHERN INDIANA CITY SKY/WX TMP DP RH WIND PRES REMARKS GARY* MOCLDY 36 30 80 N12 30.29R VALPARAISO MOCLDY 32 27 81 N12 30.25R WCI 23 MICHIGAN CITY* CLOUDY 32 28 86 N9 30.27R WCI 24 LAPORTE* PTCLDY 31 27 85 N15 30.25R WCI 20 KNOX* MOCLDY 32 28 86 N8 30.25R WCI 25 SOUTH BEND MOCLDY 30 23 75 N16 30.26R WCI 19 ELKHART* CLEAR 28 21 74 N9G16 30.24R WCI 20 GOSHEN CLEAR 28 22 78 N13 30.22R WCI 17 MONTICELLO* CLOUDY 31 28 86 N7 30.23R WCI 25 LOGANSPORT* PTCLDY 30 28 93 CALM 30.24R ROCHESTER* PTCLDY 32 28 86 N7 30.23R WCI 26 PLYMOUTH* CLOUDY 28 25 86 N10G17 30.23R WCI 19 WARSAW* CLEAR 30 23 74 N8 30.21S WCI 23 AUBURN* CLEAR 30 27 86 NW5 30.19R WCI 25 FORT WAYNE PTCLDY 30 25 81 NW7 30.19R WCI 23 HUNTINGTON* CLEAR 29 25 84 NW3 30.20R PERU/GRISSOM MOCLDY 30 30 100 NW5 30.21R WCI 25 $$ INZ028>050-041400- CENTRAL INDIANA CITY SKY/WX TMP DP RH WIND PRES REMARKS LAFAYETTE PTCLDY 37 28 70 NE10 30.23R KOKOMO* PTCLDY 31 30 96 NW9 30.23R WCI 23 MARION* CLEAR 31 28 88 N5 30.21R WCI 26 MUNCIE* PTCLDY 32 26 78 NW8 30.19R WCI 25 PORTLAND* FAIR 32 27 80 NW8 30.18R WCI 25 INDIANAPOLIS PTCLDY 34 28 79 N6 30.20R WCI 29 $$ MIZ043>046-050>051-056>058-064>065-071>073-077>080-041400- SOUTHWEST LOWER MICHIGAN CITY SKY/WX TMP DP RH WIND PRES REMARKS BATTLE CREEK CLOUDY 25 17 72 N14 30.22R WCI 13 BENTON HARBOR MOCLDY 29 21 72 N8 30.27R WCI 21 COLDWATER* CLOUDY 27 22 81 N12 30.20R WCI 17 HILLSDALE* CLOUDY 26 22 84 N16 30.16R WCI 13 HOLLAND CLEAR 26 17 68 N6 30.28R WCI 19 GRAND RAPIDS CLOUDY 27 19 72 N12 30.25R WCI 17 KALAMAZOO MOCLDY 26 18 71 N16 30.23R WCI 14 STURGIS* MOCLDY 28 22 81 N12 30.21R WCI 17 THREE RIVERS* FAIR 27 21 80 N8 30.24R WCI 18 $$ OHZ001>008-015>018-024>025-041400- NORTHWEST OHIO CITY SKY/WX TMP DP RH WIND PRES REMARKS WAUSEON* MOCLDY 28 28 100 N13G18 30.17R WCI 18 DEFIANCE MOCLDY 30 25 81 NW8 30.18R WCI 22 FINDLAY CLEAR 31 27 85 NW8 30.14R WCI 23 OTTAWA* FAIR 32 25 74 NW8 30.19R WCI 25 TOLEDO EXPRESS CLOUDY 30 23 75 N12G17 30.17R WCI 20 LIMA CLEAR 29 27 92 NW7 30.15R FOG WCI 22 $$ AND FOR LAKE MICHIGAN COASTAL AND OPEN LAKE BUOY OBSERVATIONS STATION/POSITION TEMP WIND PRES VSBY WAVE AIR SEA DIR/SP/G HT/PER (F) (DEG/KT/KT) (MB) (MI) (FT/S) CALUMET HARBOR 350/ 15/ 19 1024.8R MICHIGAN CITY 33 10/ 18/ 20 N/A BURNS HARBOR 33 10/ 10/ 12 1025.4R SAINT JOSEPH 30 20/ 15/ 20 1025.4 $$ &&

USA.gov is the U.S. government's official web portal to all federal, state and local government web resources and services.